Location: Killam
(52.7910°N, 111.8608°W)
Time: 15:34:52
(UTC+00:00)

Transit 2A - Pass Details

Date: 20 February 2026
Orbit: 590 x 954 km, 66.7° (Epoch: 9 March)

Event Time Altitude Azimuth Distance (km) Brightness Sun altitude
Rises 05:39:45 0° 313° (NW) 3,561 10.3 -41.5°
Reaches altitude 10° 05:43:15 10° 294° (WNW) 2,559 9.2 -41.9°
Enters shadow 05:44:55 14° 279° (W) 2,224 8.7 -42.0°
